Flag for Japan Weather past 2 weeks in Fukushima, Japan

Now
31 °F

Light snow. Overcast.


Feels Like: 22 °F
Forecast: 17 / 41 °F
Wind: 12 mph from Northwest

Location: Wakamatsu

Current Time: Dec 18, 2014 at 9:17:11 PM

Latest Report: Dec 18, 2014 at 8:00 PM


Visibility: 2 mi

Pressure: 30.19 "Hg

Humidity: 90%

Dew point: 28 °F

Location of FukushimaLocation

Historic Weather in Fukushima — Graph

°F

Fukushima temperature yesterday

Maximum temperature yesterday: 35 °F (at 12:00 AM)
Minimum temperature yesterday: 25 °F (at 11:00 PM)
Average temperature yesterday: 29 °F

Past Weeks' High & Low Weather Summary

 TemperatureHumidityPressure
High43 °F (Dec 10, 12:00 PM)97% (Dec 8, 6:00 AM)30.45 "Hg (Dec 8, 6:00 AM)
Low22 °F (Dec 16, 5:00 AM)55% (Dec 10, 2:00 PM)29.35 "Hg (Dec 16, 10:00 PM)
Average33 °F87%30.00 "Hg
* Reported Dec 3 8:00 PM — Dec 18 8:00 PM, Fukushima, Weather by CustomWeather, © 2014

Note: Actual official high and low records may vary slightly from our data, if they occured in-between our weather recording intervals... More about our weather records

Advertising

Fukushima weather history for previous 24 hours

 ConditionsComfort  
Time TempWeatherWind HumidityBarometerVisibility
8:00 PM
Dec 18
31 °FLight snow. Overcast.12 mph90%30.19 "Hg2 mi
7:00 PM32 °FChilly.10 mph78%30.16 "Hg12 mi
6:00 PM31 °FLight snow. Overcast.10 mph91%30.13 "Hg1 mi
5:00 PM31 °FLight snow. Overcast.12 mph91%30.09 "Hg2 mi
4:00 PM32 °FFreezing rain. Cloudy.12 mph93%30.04 "Hg1 mi
3:00 PM33 °FFreezing rain. Cloudy.18 mph87%30.00 "Hg1 mi
2:00 PM33 °FFreezing rain. Cloudy.15 mph86%29.96 "Hg2 mi
1:00 PM32 °FFreezing rain. Cloudy.17 mph90%29.93 "Hg1 mi
11:00 AM31 °FLight snow. Cloudy.9 mph90%29.91 "Hg1 mi
10:00 AM33 °FChilly.5 mph71%29.89 "Hg12 mi
9:00 AM29 °FChilly.1 mph83%29.87 "Hg12 mi
8:00 AM29 °FLight snow. Cloudy.6 mph77%29.84 "Hg12 mi
7:00 AM28 °FLight snow. Cloudy.16 mph85%29.80 "Hg2 mi
6:00 AM27 °FSnow. Overcast.15 mph94%29.77 "Hg0 mi
5:00 AM27 °FLight snow. Overcast.16 mph90%29.73 "Hg1 mi
4:00 AM26 °FLight snow. Overcast.10 mph93%29.71 "Hg0 mi
3:00 AM26 °FSnow. Overcast.12 mph92%29.68 "Hg1 mi
2:00 AM27 °FLight snow. Overcast.15 mph86%29.67 "Hg1 mi
1:00 AM25 °FSnow. Overcast.12 mph94%29.65 "Hg0 mi
12:00 AM26 °FSnow. Overcast.13 mph92%29.63 "Hg0 mi
11:00 PM
Dec 17
25 °FSnow. Overcast.20 mph94%29.62 "Hg0 mi
10:00 PM26 °FSnow. Overcast.13 mph93%29.59 "Hg0 mi
9:00 PM26 °FSnow. Overcast.14 mph94%29.58 "Hg0 mi
Weather by CustomWeather, © 2014

See weather overviewHow to use our weather pages